296  
ASUS45 KREV 230410  
RWRNV  
NEVADA REGIONAL WEATHER ROUNDUP  
NATIONAL WEATHER SERVICE RENO NV  
800 PM PST THU FEB 22 2018  
 
NOTE: "FAIR" INDICATES FEW OR NO CLOUDS BELOW 12,000 FEET WITH NO  
SIGNIFICANT WEATHER AND/OR S TO VISIBILITY
.  
 
NVZ001-003-004-230500-  
WESTERN NEVADA  
 
CITY SKY/WX TMP DP RH WIND PRES REMARKS
 
RENO MOCLDY 26 18 71 NW8 30.00R  
CARSON CITY MIX PCPN 27 14 59 N15G23 30.00R  
MINDEN LGT SNOW 25 23 93 NE6 30.00R  
SLIDE MTN N/A 7 5 92 N3 N/A  
PYRAMID LAKE N/A 30 N/A N/A NW6 N/A  
FALLON CLOUDY 26 23 88 CALM 29.99R  
LOVELOCK MOCLDY 19 17 92 CALM 29.98R  
HAWTHORNE CLOUDY 30 16 55 NW15 29.97R  

 
 
NVZ002-CAZ072-073-230500-  
NORTHERN AND CENTRAL SIERRA  
 
CITY SKY/WX TMP DP RH WIND PRES REMARKS
 
S. LAKE TAHOE LGT SNOW 18 15 88 S5 29.92R FOG  
TRUCKEE MOCLDY 18 14 86 CALM 29.95R  
SQUAW VLY 8000 N/A 10 9 92 N9 N/A  
SUSANVILLE PTCLDY 23 14 68 W6 30.03R  
BLUE CANYON PTCLDY 21 19 92 N5 29.98R  
MAMMOTH LAKES LGT SNOW 18 16 90 NW5 29.87S  
BRIDGEPORT LGT SNOW 19 14 81 CALM 29.84S VSB 3/4  

 
 
NVZ030-031-036-230500-  
NORTHERN NEVADA  
 
CITY SKY/WX TMP DP RH WIND PRES REMARKS
 
ELKO MOCLDY 19 14 81 CALM 29.91R  
WINNEMUCCA MOCLDY 24 18 77 W12 29.96R  
WENDOVER CLOUDY 24 22 91 W5 29.97S  

 
 
NVZ035-037-230500-  
CENTRAL NEVADA  
 
CITY SKY/WX TMP DP RH WIND PRES REMARKS
 
ELY CLOUDY 15 12 88 S3 29.87S  
EUREKA N/A 22 18 85 SW5 29.89R  

 
 
NVZ013-014-230500-  
SOUTH CENTRAL NEVADA  
 
CITY SKY/WX TMP DP RH WIND PRES REMARKS
 
TONOPAH MOCLDY 24 22 91 N8 29.92F  

 
 
NVZ017-020-022-230500-  
SOUTHERN NEVADA  
 
CITY SKY/WX TMP DP RH WIND PRES REMARKS
 
LAS VEGAS PTCLDY 50 11 20 SW12G20 29.93R  
N. LAS VEGAS CLEAR 50 8 18 W25G32 29.91R  
NELLIS AFB CLEAR 51 11 20 SW21G29 29.93R  
HENDERSON CLEAR 47 9 21 SW17G23 29.96R  
MERCURY MOCLDY 43 9 24 SW17 29.91R  

 
 
 
CLICK HERE TO GO TO PREVIOUS BULLETINS.

The Nexlab NV Page Main Text Page